Location: The Saddle
(36.8333°N, 80.3417°W)
Time: 06:51:27
(UTC-05:00)

Vanguard 3 - Pass Details

Date: 13 February 2026
Orbit: 507 x 3205 km, 33.3° (Epoch: 5 March)

Event Time Altitude Azimuth Distance (km) Brightness Sun altitude
Rises 19:28:06 0° 259° (WSW) 3,821 12.2 -18.2°
Reaches altitude 10° 19:31:22 10° 255° (WSW) 2,505 10.8 -18.9°
Maximum altitude 19:36:43 55° 178° (S) 758 6.9 -20.0°
Enters shadow 19:37:42 43° 130° (SE) 842 6.9 -20.2°
